Newport, RI

8:56 AM EDT on May 25, 2017 (GMT -0400)
Newport State

Weather History for KUUU - September, 2012

Change the Weather History Date:

Wednesday, September 12, 2012

  Actual Average Record
Temperature  
Mean Temperature 62 °F -  
Max Temperature 73 °F 73 °F 87 °F (1961)
Min Temperature 51 °F 58 °F 44 °F (1967)
Degree Days  
Heating Degree Days 4    
Growing Degree Days 12 (Base 50)    
Moisture  
Dew Point 56 °F    
Average Humidity 77    
Maximum Humidity 96    
Minimum Humidity 59    
Precipitation  
Precipitation 0.00 in - - ()
Sea Level Pressure  
Sea Level Pressure 30.33 in    
Wind  
Wind Speed 2 mph (South)    
Max Wind Speed 13 mph    
Max Gust Speed -    
Visibility 10 miles    
Events      
Averages and records for this station are not official NWS values.
T = Trace of Precipitation, MM = Missing Value Source: NWS Daily Summary

Daily Weather History Graph

Daily Weather History Graph

Search for Another Location

Airport or City:

Trip Planner

Search our weather history database for the weather conditions in past years. The results will help you decide how hot, cold, wet, or windy it might be!

Date:

Astronomy

Sep. 12, 2012 Rise Set
Actual Time 6:22 AM EDT 6:58 PM EDT
Civil Twilight 5:54 AM EDT 7:26 PM EDT
Nautical Twilight 5:21 AM EDT 7:59 PM EDT
Astronomical Twilight 4:47 AM EDT 8:33 PM EDT
Moon 2:34 AM EDT (9/12) 4:46 PM EDT (9/12)
Length of Visible Light 13h 31m
Length of Day
12h 36m
Waning Crescent, 14% of the Moon is Illuminated
Sep 12
Waning Crescent
Sep 15
New
Sep 22
First Quarter
Sep 29
Full
Oct 8
Last Quarter

Hourly Weather History & Observations

Time (EDT) Temp. Dew Point Humidity Pressure Visibility Wind Dir Wind Speed Gust Speed Precip Events Conditions
12:53 AM 57.9 °F 53.1 °F 84% 30.28 in 10.0 mi Calm Calm - N/A   Clear
1:53 AM 54.0 °F 51.1 °F 90% 30.29 in 10.0 mi Calm Calm - N/A   Clear
2:53 AM 57.0 °F 53.1 °F 87% 30.29 in 10.0 mi Calm Calm - N/A   Clear
3:53 AM 54.0 °F 50.0 °F 86% 30.30 in 10.0 mi Calm Calm - N/A   Clear
4:53 AM 52.0 °F 50.0 °F 93% 30.30 in 10.0 mi Calm Calm - N/A   Clear
5:53 AM 52.0 °F 50.0 °F 93% 30.32 in 7.0 mi Calm Calm - N/A   Clear
6:53 AM 51.1 °F 50.0 °F 96% 30.33 in 10.0 mi Calm Calm - N/A   Clear
7:53 AM 59.0 °F 55.0 °F 87% 30.34 in 10.0 mi Calm Calm - N/A   Clear
8:53 AM 64.9 °F 54.0 °F 68% 30.35 in 10.0 mi Calm Calm - N/A   Clear
9:53 AM 68.0 °F 55.0 °F 63% 30.36 in 10.0 mi Calm Calm - N/A   Clear
10:53 AM 69.1 °F 57.0 °F 65% 30.36 in 10.0 mi Variable 3.5 mph - N/A   Clear
11:53 AM 71.1 °F 59.0 °F 66% 30.36 in 10.0 mi Variable 6.9 mph - N/A   Clear
12:53 PM 71.1 °F 57.9 °F 63% 30.35 in 10.0 mi SSE 8.1 mph - N/A   Clear
1:53 PM 72.0 °F 57.0 °F 59% 30.35 in 10.0 mi South 12.7 mph - N/A   Clear
2:53 PM 72.0 °F 60.1 °F 66% 30.34 in 10.0 mi South 10.4 mph - N/A   Clear
3:53 PM 71.1 °F 59.0 °F 66% 30.33 in 10.0 mi SSW 8.1 mph - N/A   Clear
4:53 PM 70.0 °F 57.0 °F 63% 30.33 in 10.0 mi South 9.2 mph - N/A   Clear
5:53 PM 69.1 °F 57.9 °F 68% 30.33 in 10.0 mi SSW 8.1 mph - N/A   Clear
6:53 PM 66.9 °F 60.1 °F 79% 30.33 in 10.0 mi SSW 4.6 mph - N/A   Clear
7:53 PM 66.0 °F 59.0 °F 78% 30.35 in 10.0 mi South 5.8 mph - N/A   Clear
9:53 PM 64.9 °F 57.9 °F 78% 30.37 in 10.0 mi South 3.5 mph - N/A   Clear
10:53 PM 63.0 °F 57.9 °F 84% 30.37 in 10.0 mi Calm Calm - N/A   Clear
11:53 PM 62.1 °F 57.0 °F 84% 30.36 in 10.0 mi Calm Calm - N/A   Clear